Zurück zum Katalog

CZ-2C R/B

AktivSSO
NORAD 67475·ROCKET BODY·🇨🇳 China

Gestartet Jan 15, 2026 von Jiuquan Satellite Launch Center

Loading…

Nächste Überflüge (nächste 24 Stunden)

TLE

AktuellSource: Space-Track

Epoche: Sep 14, 2026, 15:15 UTC

1 67475U 26009B   26257.63565993  .00002779  00000-0  18337-3 0  9994
2 67475  97.1497 314.2127 0097875 111.6479 249.5207 15.04289058 36474

Verfolge CZ-2C R/B in Echtzeit mit AllMySat

Download on the App Store